Home   Weather   Nanjing   Past weeks

Flag for China Past Weather in Nanjing, Jiangsu, China — Yesterday and Last 2 Weeks

63 °F


Feels Like: 63 °F
Forecast: 57 / 64 °F
Wind: 6 mph from West

Location: Nanjing

Current Time: Oct 25, 2016 at 12:00:29 AM

Latest Report: Oct 24, 2016 at 11:00 PM

Visibility: 0 mi

Pressure: 29.89 "Hg

Humidity: 100%

Dew Point: 63 °F

Location of NanjingLocation

Past Weather in Nanjing — Graph


Nanjing Temperature Yesterday

Maximum temperature yesterday: 72 °F (at 1:00 PM)
Minimum temperature yesterday: 61 °F (at 1:00 AM)
Average temperature yesterday: 65 °F

High & Low Weather Summary for the Past Weeks

High73 °F (Oct 18, 12:00 PM)100% (Oct 10, 6:00 AM)30.27 "Hg (Oct 10, 6:00 AM)
Low54 °F (Oct 10, 6:00 AM)53% (Oct 10, 3:00 PM)29.77 "Hg (Oct 22, 1:00 PM)
Average66 °F91%30.05 "Hg
* Reported Oct 9 11:00 PM — Oct 24 11:00 PM, Nanjing, Weather by CustomWeather, © 2016

Note: Actual official high and low records may vary slightly from our data, if they occured in-between our weather recording intervals... More about our weather records


Nanjing Weather History for the Previous 24 Hours

Scroll right to see more
Time TempWeatherWind HumidityBarometerVisibility
11:00 PM
Mon, Oct 24
63 °FFog.6 mph100%29.89 "Hg1 mi
10:00 PM63 °FFog.1 mph100%29.89 "Hg1 mi
9:00 PM64 °FFog.3 mph100%29.92 "Hg1 mi
8:00 PM64 °FFog.6 mph100%29.92 "Hg1 mi
7:00 PM66 °FFog.3 mph94%29.89 "Hg2 mi
6:00 PM68 °FFog.3 mph94%29.89 "Hg2 mi
5:00 PM72 °FOvercast.3 mph83%29.89 "Hg4 mi
4:00 PM72 °FPartly sunny.No wind83%29.89 "Hg4 mi
3:00 PM72 °FPartly sunny.1 mph83%29.89 "Hg4 mi
2:00 PM72 °FScattered clouds.6 mph83%29.89 "Hg4 mi
1:00 PM72 °FScattered clouds.6 mph83%29.92 "Hg4 mi
12:00 PM68 °FFog.3 mph88%29.95 "Hg3 mi
11:00 AM66 °FFog.3 mph94%29.98 "Hg2 mi
10:00 AM64 °FFog.3 mph100%30.01 "Hg2 mi
9:00 AM63 °FFog.3 mph100%30.01 "Hg2 mi
8:00 AM63 °FFog.3 mph100%30.01 "Hg3 mi
7:00 AM63 °FFog.3 mph100%30.01 "Hg3 mi
6:00 AM63 °FFog.3 mph100%30.01 "Hg2 mi
5:00 AM63 °FFog.3 mph100%29.98 "Hg2 mi
4:00 AM63 °FFog.3 mph100%29.98 "Hg3 mi
3:00 AM63 °FFog.6 mph100%30.01 "Hg2 mi
2:00 AM63 °FFog.8 mph100%30.01 "Hg2 mi
1:00 AM61 °FFog.6 mph100%30.01 "Hg1 mi
12:00 AM63 °FDrizzle. Fog.8 mph100%30.01 "Hg1 mi
Weather by CustomWeather, © 2016

See weather overviewHow to use our weather pages